Location: B?dimalle
(17.1788°N, 80.5377°E)
Time: 12:18:54
(UTC+00:00)

Courier 1B Rocket - Pass Details

Date: 17 December 2025
Orbit: 920 x 1201 km, 28.2° (Epoch: 25 January)

Event Time Altitude Azimuth Distance (km) Brightness Sun altitude
Exits shadow 21:58:11 22° 145° (SE) 1,993 6.9 -42.0°
Drops below altitude 10° 22:00:28 10° 136° (SE) 2,719 7.8 -41.5°
Sets 22:03:07 0° 130° (SE) 3,632 8.7 -40.9°
